Location: White Sands National Monument
(32.8140°N, 106.2665°W)
Time: 23:09:51
(UTC-07:00)

Daily predictions for brighter satellites

Satellite Brightness Start Highest point End
(mag) Time Altitude Azimuth Time Altitude Azimuth Time Altitude Azimuth
Cosmos 1346 Rocket 2.8 18:16:32 10° N 18:20:29 87° W 18:24:21 10° S
deb Kosmos-1763 4.1 18:18:40 10° S 18:22:26 66° ESE 18:26:12 10° NNE
Meteor 1-25 Rocket 4.2 18:16:58 10° S 18:22:29 68° E 18:28:05 10° NNE
Cosmos 1975 Rocket 3.0 18:24:04 10° N 18:28:23 89° W 18:32:42 10° S
SKYMED 2 4.5 18:24:54 10° N 18:29:08 53° WNW 18:33:20 10° SSW
PSLV R/B 3.4 18:31:19 10° WNW 18:34:26 65° SSW 18:37:34 10° SE
Cosmos 1812 2.8 18:32:03 10° N 18:35:51 55° E 18:39:37 10° SSE
Helios 1B rocket 4.1 18:38:47 13° ENE 18:39:55 14° E 18:42:06 10° SE
Cosmos 1190 Rocket 4.1 18:35:08 10° SSW 18:40:18 80° WNW 18:45:31 10° NNE
Cosmos 1140 Rocket 4.1 18:39:05 10° SSE 18:43:38 33° E 18:48:12 10° NE
Cosmos 1536 Rocket 4.0 18:43:01 10° N 18:47:15 41° E 18:51:27 10° SSE
Cosmos 2219 4.4 18:44:57 10° SE 18:48:59 20° E 18:51:31 15° ENE
GPS 2-04 Rocket1 4.3 18:47:09 10° SSW 18:50:39 24° SSE 18:52:48 17° ESE
Spot 2 Rocket 4.2 18:46:55 10° SE 18:51:20 32° ENE 18:55:46 10° N
Resurs 01 Rocket 2.4 18:47:43 10° SE 18:51:33 30° ENE 18:55:24 10° N
METEOR-M 4.1 18:47:13 10° SSE 18:52:33 87° ENE 18:57:55 10° NNW
NOAA 12 4.1 18:47:19 10° SSE 18:52:37 90° ENE 18:57:58 10° NNW
Tiangong 2 2.8 18:51:25 10° NNW 18:53:44 19° NNE 18:54:42 17° NE
Cosmos 44 Rocket 3.6 18:49:06 10° NNW 18:53:47 67° WSW 18:58:23 10° SSE
Cosmos 1602 4.0 18:52:09 10° SSE 18:55:48 43° E 18:59:31 10° NNE
Nadezhda 1 Rocket 4.1 18:50:10 10° N 18:56:14 76° W 19:02:16 10° S
Cosmos 2360 Rocket 3.1 18:53:30 10° N 18:58:14 27° ENE 19:00:38 20° E
Cosmos 1980 Rocket 4.0 18:53:52 10° NW 18:58:56 34° WSW 19:04:00 10° SSW
GEOS 3 Rocket 4.2 18:56:02 10° NNE 19:01:11 60° NW 19:06:23 10° SW
DNEPR-1 R/B 3.6 18:57:18 10° NNW 19:01:25 51° ENE 19:04:45 15° SE
HJ-1C 3.5 18:59:10 10° SSE 19:02:26 49° ENE 19:05:43 10° N
Cosmos 2181 Rocket 4.1 19:01:34 10° N 19:07:41 54° E 19:13:50 10° SSE
Cosmos 1954 Rocket 3.9 19:03:22 10° SSW 19:08:32 85° ESE 19:13:46 10° NNE
SL-19 R/B 4.4 19:03:09 10° SE 19:08:32 54° ENE 19:14:11 10° N
BREEZE-M DEB (TANK) 4.2 19:07:11 10° N 19:09:29 18° NE 19:09:29 18° NE
Cosmos 1633 2.4 19:06:06 10° S 19:09:45 78° E 19:13:26 10° N
CENTAUR R/B 3.9 19:03:07 10° NW 19:10:59 56° WSW 19:19:05 10° S
SJ-6B 3.2 19:07:50 10° S 19:11:53 68° W 19:15:52 10° NNW
Longmarch 3A Rocket 2.4 19:10:26 10° SW 19:11:59 22° S 19:12:06 22° S
Cosmos 1833 4.2 19:07:51 10° SSW 19:13:35 89° E 19:19:17 10° NNE
Cosmos 1300 Rocket 3.4 19:10:58 10° S 19:15:20 78° E 19:19:46 10° N
Resurs 1-3 3.7 19:12:18 10° SSE 19:16:30 48° ENE 19:20:44 10° N
H-2A ROCKET BODY 4.4 18:58:31 10° W 19:16:49 32° SW 19:21:55 10° SSE
Cosmos 44 3.5 19:13:29 10° NW 19:17:46 58° WSW 19:21:58 10° SSE
ASTRO E2 3.5 19:16:37 10° W 19:20:29 44° SSW 19:21:53 31° SE
Abrixas rocket 4.3 19:19:42 10° S 19:20:57 17° SSE 19:20:57 17° SSE
Cosmos 2184 Rocket 4.2 19:17:09 10° SSE 19:23:06 45° E 19:29:03 10° NNE
FengYun 1-2 T 4.1 19:18:00 10° SSE 19:23:28 87° ENE 19:28:59 10° NNW
Cosmos 2074 Rocket 4.2 19:17:34 10° SSE 19:23:29 47° E 19:29:26 10° NNE
Cosmos 1709 Rocket 4.4 19:18:30 10° SSW 19:24:43 67° W 19:30:53 10° N
NOSS 8 (E) 4.4 19:24:11 10° SSW 19:27:41 83° WNW 19:28:26 53° NNE
BREEZE-M DEB (TANK) 2.5 19:22:36 10° NW 19:28:19 68° NE 19:28:34 64° ENE
Gbstr 26 Del rocket 2.7 19:25:19 10° SW 19:29:10 75° NW 19:29:59 51° NNE
SL-16 R/B 2.8 19:25:22 10° NNW 19:30:55 57° WSW 19:36:25 10° S
CZ-3C R/B 3.0 19:28:35 10° WSW 19:33:05 17° SSW 19:34:30 14° S
Meteor 1-19 Rocket 4.1 19:28:41 10° N 19:34:22 77° E 19:40:08 10° SSE
Hubble Space Telescope 3.2 19:33:50 10° S 19:34:17 11° S 19:34:17 11° S
Cosmos 1340 2.9 19:31:57 10° NNW 19:35:42 68° W 19:39:26 10° S
Cosmos 1536 2.6 19:32:09 10° S 19:36:09 82° E 19:37:17 45° NNE
Cosmos 1461 3.1 19:36:16 10° NNW 19:40:16 67° WSW 19:41:25 44° S
Meteor 1-5 Rocket 4.3 19:34:32 10° S 19:40:20 57° E 19:46:10 10° NNE
BREEZE-M DEB (TANK) 3.4 19:37:49 10° WSW 19:42:00 40° NW 19:42:08 39° NW
Okean 1 Rocket 3.5 19:39:56 10° SSW 19:44:21 63° W 19:48:49 10° N
Helios 1A 4.2 19:48:26 30° N 19:48:26 30° N 19:50:38 10° N
CZ-2D R/B 4.3 19:48:13 35° NNW 19:48:13 35° NNW 19:50:31 10° NNW
Cosmos 1741 Rocket 3.9 19:42:11 10° SSW 19:47:25 88° ESE 19:50:14 28° NNE
Meteor 1-13 Rocket 4.5 19:42:07 10° NNW 19:47:38 68° W 19:53:14 10° S
Cosmos 2322 Rocket 3.7 19:44:18 10° NW 19:49:23 36° WSW 19:54:27 10° SSW
OAO 3 Copernicus 4.2 19:44:33 10° WNW 19:49:37 76° N 19:49:53 73° NE
Delta R/B 4.4 19:41:17 10° WSW 19:51:13 43° S 19:51:29 43° S
ALOS 3.8 19:51:52 10° SSW 19:56:06 35° W 20:00:22 10° NNW
H-2A R/B 3.9 19:57:12 36° SW 19:57:52 40° W 20:01:23 10° NNW
DELTA 2 R/B (1) 3.8 19:52:55 10° WNW 19:58:27 57° NNE 19:58:28 57° NNE
Cosmos 2322 3.5 19:54:58 10° NNW 20:00:43 83° ENE 20:00:58 80° ESE
Meteor 1-23 Rocket 4.1 19:56:11 10° N 20:01:46 76° NE 20:01:46 76° NE
Meteor 2-4 Rocket 3.9 20:06:40 10° NNW 20:12:10 67° W 20:13:15 54° SSW
COSMOS 2428 4.0 20:07:10 10° N 20:09:59 29° N 20:09:59 29° N
Helios 1B rocket 3.9 20:15:09 35° WNW 20:15:18 35° WNW 20:19:04 10° SW
ATLAS CENTAUR R/B 4.2 20:20:59 10° SW 20:23:11 21° SW 20:23:11 21° SW
Resurs 01 Rocket 4.2 20:24:55 10° SW 20:28:00 19° W 20:31:06 10° NW
Cosmos 2219 4.1 20:27:14 10° SW 20:32:43 45° WNW 20:33:36 42° NW
Cosmos 2360 Rocket 3.5 20:37:08 10° NW 20:42:12 35° WSW 20:42:30 34° WSW
